[[{"header":{"parameterUnit":"m.s-1","parameterCategory":1,"la1":30.2991,"la2":30.254,"lo1":-89.0895,"lo2":-89.0444,"dy":0.0017,"dx":0.0017,"nx":28,"ny":28,"refTime":"2025-12-04T09:00:00:Z","depth":0,"parameterNumber":2,"parameterNumberName":"U-component_of_WINDS"},"data":[0,0,0,0,0,0,0,0,0,0,0,0,0,0,0,0,0,0,0,0,0,0,0,0,0,0,0,0,0,0,0,0,0,0,0,0,0,0,0,0,0,0,0,0,0,0,0,0,0,0,0,0,0,0,0,0,0,0,-6.9726,-6.9727,0,-6.9804,-6.9805,-6.9806,-6.9631,-6.9625,-6.962,-6.9614,-6.9693,-6.97,-6.9707,0,0,0,0,0,0,0,0,0,0,0,0,0,-6.9421,-6.9428,-6.9726,-6.9727,-6.9728,-6.9804,-6.9805,-6.9806,-6.9632,-6.9625,-6.9618,-6.9612,-6.969,-6.9699,-6.9708,0,0,0,0,0,0,0,0,0,0,0,0,0,-6.9532,-6.943,-6.9725,-6.965,-6.9644,-6.9804,-6.9805,-6.9806,-6.9633,-6.9625,-6.9616,-6.9609,-6.9688,-6.9698,-6.9709,-6.9946,0,0,-6.9743,-6.9747,0,0,0,0,0,0,0,0,-6.9526,-6.9543,-6.966,-6.9655,-6.9649,-6.9699,-6.9726,-6.9853,-6.9635,-6.9637,-6.9614,-6.9604,-6.9702,-6.9711,-6.9744,-6.9949,-6.9953,-6.9744,-6.975,-6.9755,-6.9758,0,0,0,0,0,0,0,-6.9518,-6.9539,-6.9756,-6.9662,-6.9655,-6.9611,-6.9617,-6.975,-6.9716,-6.9636,-6.9624,-6.9636,-6.9697,-6.9734,-6.9745,-6.9954,-6.9743,-6.9753,-6.976,-6.9764,-7.0354,-7.0363,0,0,0,0,0,0,-6.9521,-6.9534,-6.9754,-6.9759,-6.9566,-6.9623,-6.963,-6.9692,-6.9714,-6.9709,-6.9643,-6.9627,-6.9719,-6.9732,-6.9747,-7.0024,-6.9755,-6.9765,-6.9772,-7.0345,-7.0356,-7.0366,0,0,0,0,0,0,-6.9515,-6.9542,-6.9751,-6.9643,-6.9666,-6.9637,-6.9707,-6.9698,-6.9734,-6.9719,-6.9711,-6.9687,-6.9713,-6.9731,-6.9897,-7.0024,-6.977,-6.978,-7.0335,-7.0349,-7.0361,-7.0581,0,0,0,0,0,0,-6.9507,-6.9541,-6.9632,-6.9646,-6.9673,-6.9902,-6.9715,-6.9705,-6.9754,-6.9734,-6.9758,-6.9754,-6.9708,-6.9882,-6.9908,-7.0035,-6.9789,-7.0323,-7.0341,-7.0357,-7.0562,-7.0601,-7.0633,0,0,0,0,0,-6.9497,-6.969,-6.9637,-6.9665,-6.9785,-6.9909,-6.9924,-6.9868,-6.9765,-6.9855,-6.9844,-6.9753,-7.0006,-6.99,-6.9928,-7.006,-7.0315,-7.0336,-7.0356,-7.0547,-7.0593,-7.0632,0,0,0,0,0,0,-6.9691,-6.9691,-6.9632,-6.9836,-6.9874,-6.988,-6.9992,-6.9919,-6.9987,-6.9965,-6.9892,-6.9899,-7.0078,-7.0085,-6.9967,-7.0289,-7.0143,-7.017,-7.0278,-7.0322,-7.0357,-7.0352,-6.9798,0,0,0,0,0,-6.9758,-6.9859,-6.9853,-7.0034,-7.0056,-7.0021,-7.0073,-7.0026,-7.0062,-7.0077,-7.0079,-7.0117,-7.0204,-7.0263,-7.0343,-7.0562,-7.0564,-7.0667,-7.0702,-7.0731,-7.0756,-7.0871,-7.0916,-7.0433,-7.0433,-7.0433,0,0,-6.9896,-6.9909,-6.9977,-7.0073,-7.0097,-7.0203,-7.0036,-7.0155,-7.0233,-7.0095,-7.0252,-7.0255,-7.0291,-7.0485,-7.057,-7.0496,-7.0889,-7.0757,-7.0781,-7.0789,-7.0896,-7.0942,-7.0983,-7.0447,-7.0445,-7.0443,0,0,-7.0203,-7.0223,-7.0375,-7.0403,-7.0441,-7.0416,-7.0453,-7.047,-7.0466,-7.0622,-7.0521,-7.0611,-7.0764,-7.0794,-7.0829,-7.1146,-7.1065,-7.1174,-7.136,-7.1473,-7.1511,-7.1544,-7.1656,-7.1697,-7.1198,-7.1199,-7.1199,0,-7.037,-7.0527,-7.0463,-7.0589,-7.0634,-7.0514,-7.0667,-7.0696,-7.0759,-7.0792,-7.0708,-7.0897,-7.0913,-7.1111,-7.1189,-7.1222,-7.126,-7.1171,-7.151,-7.1543,-7.1573,-7.1679,-7.1722,-7.1212,-7.1211,-7.1209,-7.1208,0,-7.073,-7.084,-7.0958,-7.1022,-7.108,-7.1219,-7.1175,-7.1241,-7.1189,-7.1172,-7.1332,-7.1347,-7.1428,-7.1471,-7.1421,-7.1662,-7.1615,-7.1523,-7.1374,-7.1633,-7.1732,-7.1772,-7.1231,-7.1226,-7.1222,-7.1219,0,0,-7.1162,-7.1188,-7.1233,-7.126,-7.1292,-7.1376,-7.1508,-7.1587,-7.1645,-7.1692,-7.18,-7.1932,-7.1846,-7.1886,-7.1838,-7.1938,-7.2187,-7.1832,-7.1832,-7.1897,-7.2452,-7.2521,-7.257,-7.2132,-7.214,-7.2146,-7.2448,0,-7.1465,-7.1695,-7.1641,-7.1867,-7.1967,-7.1854,-7.1969,-7.2002,-7.199,-7.2071,-7.2057,-7.2151,-7.2031,-7.2055,-7.2148,-7.2137,-7.2297,-7.2114,-7.2232,-7.2237,-7.2227,-7.2621,-7.2695,-7.298,-7.2487,-7.2493,-7.2498,0,-7.185,-7.1912,-7.2149,-7.2164,-7.2204,-7.2309,-7.2376,-7.2456,-7.2489,-7.2473,-7.2519,-7.2451,-7.258,-7.2431,-7.2608,-7.2485,-7.2529,-7.2531,-7.2541,-7.255,-7.2383,-7.264,-7.307,-7.3113,-7.2558,-7.2553,-7.2549,0,-7.2141,-7.2283,-7.2443,-7.2469,-7.2491,-7.2568,-7.258,-7.2605,-7.2656,-7.2714,-7.2746,-7.2818,-7.2858,-7.2916,-7.2869,-7.2764,-7.3053,-7.29,-7.3043,-7.3044,-7.3109,-7.3106,-7.3552,-7.3139,-7.3138,-7.3137,-7.3136,0,-7.2485,-7.2634,-7.2573,-7.2672,-7.2835,-7.277,-7.2933,-7.2932,-7.2955,-7.305,-7.2957,-7.3048,-7.298,-7.3065,-7.3029,-7.3181,-7.32,-7.319,-7.3178,-7.3198,-7.32,-7.3227,-7.3206,-7.3149,-7.3146,-7.3144,-7.3142,0,-7.2838,-7.2803,-7.297,-7.2977,-7.2982,-7.3102,-7.3107,-7.3198,-7.3178,-7.33,-7.3324,-7.3294,-7.3389,-7.3348,-7.3448,-7.3423,-7.3618,-7.358,-7.3607,-7.3597,-7.3743,-7.373,-7.4222,-7.4282,-7.3831,-7.3835,-7.3839,0,-7.306,-7.3172,-7.3191,-7.3248,-7.3268,-7.3361,-7.3412,-7.3352,-7.3409,-7.3455,-7.3539,-7.3626,-7.3692,-7.3849,-7.3835,-7.3911,-7.3874,-7.4041,-7.3885,-7.3901,-7.3876,-7.387,-7.388,-7.4073,-7.4078,-7.4082,-7.4086,0,-7.3457,-7.3434,-7.3512,-7.3584,-7.3648,-7.3701,-7.3746,-7.3798,-7.374,-7.3808,-7.3904,-7.3956,-7.4058,-7.4145,-7.4211,-7.4222,-7.4145,-7.4135,-7.4172,-7.4194,-7.4204,-7.42,-7.3693,-7.4124,-7.412,-7.4117,-7.4115,-7.4114,-7.3751,-7.3845,-7.3873,-7.3962,-7.399,-7.4034,-7.4119,-7.411,-7.419,-7.4268,-7.4227,-7.4339,-7.4367,-7.4449,-7.447,-7.4556,-7.449,-7.4544,-7.4557,-7.4572,-7.4591,-7.4191,-7.4568,-7.4567,-7.4565,-7.4565,-7.4564,0,-7.4143,-7.4155,-7.4238,-7.4304,-7.4374,-7.4295,-7.4341,-7.4404,-7.4504,-7.4538,-7.4605,-7.4715,-7.4798,-7.4791,-7.4867,-7.4937,-7.4904,-7.4959,-7.4953,-7.4957,-7.4646,-7.4606,-7.4985,-7.4985,-7.4985,-7.4985,-7.4985,-7.4985,-7.4355,-7.4509,-7.449,-7.4657,-7.4667,-7.4777,-7.4809,-7.4849,-7.4875,-7.5003,-7.5072,-7.5066,-7.5083,-7.5159,-7.5232,-7.5227,-7.526,-7.5329,-7.5312,-7.5021,-7.4979,-7.4939,-7.4901,-7.5337,-7.5337,-7.5615,-7.5618,-7.562]},{"header":{"parameterUnit":"m.s-1","parameterCategory":1,"la1":30.2991,"la2":30.254,"lo1":-89.0895,"lo2":-89.0444,"dy":0.0017,"dx":0.0017,"nx":28,"ny":28,"refTime":"2025-12-04T09:00:00:Z","depth":0,"parameterNumber":3,"parameterNumberName":"V-component_of_WINDS"},"data":[0,0,0,0,0,0,0,0,0,0,0,0,0,0,0,0,0,0,0,0,0,0,0,0,0,0,0,0,0,0,0,0,0,0,0,0,0,0,0,0,0,0,0,0,0,0,0,0,0,0,0,0,0,0,0,0,0,0,-1.4233,-1.4233,0,-1.419,-1.419,-1.4189,-1.4137,-1.4136,-1.4135,-1.4135,-1.4091,-1.4091,-1.409,0,0,0,0,0,0,0,0,0,0,0,0,0,-1.4272,-1.4271,-1.4233,-1.4233,-1.4232,-1.419,-1.419,-1.4189,-1.4137,-1.4136,-1.4135,-1.4134,-1.4091,-1.4091,-1.409,0,0,0,0,0,0,0,0,0,0,0,0,0,-1.4244,-1.4271,-1.4233,-1.4201,-1.4198,-1.419,-1.419,-1.4189,-1.4137,-1.4136,-1.4135,-1.4134,-1.4091,-1.4091,-1.409,-1.4111,0,0,-1.4088,-1.4088,0,0,0,0,0,0,0,0,-1.4246,-1.4243,-1.4207,-1.4203,-1.42,-1.4168,-1.4187,-1.4163,-1.4138,-1.416,-1.4134,-1.4133,-1.4118,-1.4115,-1.4109,-1.4109,-1.4107,-1.4088,-1.4088,-1.4088,-1.4088,0,0,0,0,0,0,0,-1.4248,-1.4245,-1.4216,-1.4206,-1.4202,-1.4189,-1.4184,-1.4182,-1.4146,-1.4158,-1.4154,-1.415,-1.4116,-1.411,-1.4108,-1.4107,-1.4088,-1.4088,-1.4088,-1.4087,-1.4122,-1.4123,0,0,0,0,0,0,-1.4255,-1.4247,-1.4218,-1.4215,-1.422,-1.419,-1.4184,-1.4179,-1.4146,-1.414,-1.4151,-1.4148,-1.4112,-1.4109,-1.4106,-1.4128,-1.4088,-1.4087,-1.4087,-1.412,-1.4122,-1.4123,0,0,0,0,0,0,-1.4256,-1.4253,-1.4219,-1.423,-1.4225,-1.419,-1.4186,-1.4179,-1.4173,-1.4141,-1.4134,-1.4152,-1.4111,-1.4107,-1.411,-1.4126,-1.4087,-1.4086,-1.4119,-1.4121,-1.4123,-1.4173,0,0,0,0,0,0,-1.4257,-1.4253,-1.426,-1.423,-1.4224,-1.4224,-1.4187,-1.4179,-1.4173,-1.4168,-1.414,-1.4134,-1.4109,-1.4112,-1.411,-1.4124,-1.4086,-1.4117,-1.412,-1.4122,-1.4169,-1.4176,-1.4182,0,0,0,0,0,-1.4258,-1.4276,-1.4261,-1.4258,-1.4232,-1.4225,-1.4221,-1.4192,-1.4174,-1.4181,-1.416,-1.4135,-1.4125,-1.4112,-1.411,-1.4125,-1.4116,-1.4119,-1.4122,-1.4167,-1.4175,-1.4182,0,0,0,0,0,0,-1.4309,-1.4272,-1.4254,-1.4263,-1.4248,-1.4216,-1.4224,-1.4202,-1.4191,-1.4187,-1.4152,-1.4146,-1.4154,-1.414,-1.4126,-1.4143,-1.4117,-1.4119,-1.4152,-1.4159,-1.4165,-1.4168,-1.4086,0,0,0,0,0,-1.4322,-1.4318,-1.4286,-1.4297,-1.429,-1.4259,-1.4254,-1.4233,-1.4216,-1.4209,-1.4188,-1.4173,-1.4166,-1.4162,-1.4154,-1.4168,-1.4161,-1.4177,-1.4183,-1.4188,-1.419,-1.4196,-1.4203,-1.4133,-1.4133,-1.4132,0,0,-1.4347,-1.4326,-1.4326,-1.4306,-1.4292,-1.4289,-1.4253,-1.4252,-1.425,-1.4209,-1.421,-1.4195,-1.4175,-1.4184,-1.4186,-1.4172,-1.4209,-1.4192,-1.4196,-1.4195,-1.42,-1.4207,-1.4213,-1.4134,-1.4134,-1.4134,0,0,-1.4391,-1.4375,-1.4382,-1.4368,-1.4347,-1.4326,-1.4328,-1.43,-1.4288,-1.4289,-1.4258,-1.4256,-1.4245,-1.4232,-1.4224,-1.4265,-1.4241,-1.4263,-1.4295,-1.4301,-1.4307,-1.4311,-1.4325,-1.4331,-1.4266,-1.4266,-1.4266,0,-1.4424,-1.4419,-1.4388,-1.4389,-1.4381,-1.4345,-1.4351,-1.434,-1.4317,-1.4313,-1.4298,-1.4283,-1.4268,-1.4272,-1.4282,-1.4278,-1.4279,-1.4265,-1.4308,-1.4313,-1.4317,-1.433,-1.4335,-1.4269,-1.4268,-1.4268,-1.4268,0,-1.4461,-1.4459,-1.4467,-1.4446,-1.4439,-1.4443,-1.4413,-1.4411,-1.4391,-1.4372,-1.4374,-1.4354,-1.4341,-1.4341,-1.4321,-1.4343,-1.4335,-1.4315,-1.4287,-1.4327,-1.4338,-1.4343,-1.4273,-1.4272,-1.4271,-1.427,0,0,-1.4535,-1.4497,-1.4501,-1.4491,-1.4465,-1.4462,-1.4465,-1.4452,-1.445,-1.4437,-1.4438,-1.443,-1.4411,-1.4402,-1.4381,-1.4387,-1.442,-1.4366,-1.4365,-1.4376,-1.4443,-1.4457,-1.4463,-1.4405,-1.4406,-1.4407,-1.4444,0,-1.4573,-1.4575,-1.4548,-1.4557,-1.4554,-1.452,-1.4522,-1.4507,-1.449,-1.4485,-1.4466,-1.4461,-1.4437,-1.4431,-1.4435,-1.4415,-1.4433,-1.4412,-1.4406,-1.4406,-1.441,-1.4469,-1.4484,-1.452,-1.4448,-1.4449,-1.445,0,-1.4618,-1.4606,-1.4615,-1.4589,-1.4587,-1.459,-1.4576,-1.4572,-1.4554,-1.4541,-1.4532,-1.4509,-1.451,-1.4485,-1.4486,-1.4473,-1.4469,-1.4459,-1.446,-1.4457,-1.4429,-1.4467,-1.4531,-1.4536,-1.4456,-1.4456,-1.4455,0,-1.4669,-1.4656,-1.466,-1.4652,-1.4623,-1.4625,-1.4613,-1.4594,-1.4588,-1.4577,-1.4573,-1.4562,-1.4556,-1.4549,-1.4523,-1.4507,-1.4527,-1.45,-1.4516,-1.4517,-1.452,-1.452,-1.4584,-1.452,-1.452,-1.452,-1.452,0,-1.4714,-1.4721,-1.4682,-1.4684,-1.4691,-1.4661,-1.4668,-1.4653,-1.4636,-1.4635,-1.4605,-1.4605,-1.4572,-1.4568,-1.4548,-1.4552,-1.4549,-1.4539,-1.4533,-1.4541,-1.4542,-1.4536,-1.4533,-1.4522,-1.4521,-1.4521,-1.4521,0,-1.4772,-1.4746,-1.4748,-1.472,-1.4713,-1.4719,-1.4695,-1.4696,-1.4678,-1.4677,-1.4675,-1.4646,-1.464,-1.4614,-1.4602,-1.4588,-1.4598,-1.4588,-1.4604,-1.46,-1.4617,-1.4616,-1.4678,-1.4685,-1.4619,-1.4619,-1.462,0,-1.4801,-1.4805,-1.4778,-1.4775,-1.4764,-1.476,-1.4754,-1.4725,-1.472,-1.4701,-1.4704,-1.4696,-1.4687,-1.4679,-1.4657,-1.4648,-1.4636,-1.4659,-1.4635,-1.4642,-1.4635,-1.4635,-1.4635,-1.4664,-1.4665,-1.4665,-1.4666,0,-1.4856,-1.4844,-1.4836,-1.4825,-1.4818,-1.4808,-1.4796,-1.4795,-1.4763,-1.4759,-1.4752,-1.4746,-1.4733,-1.4725,-1.4712,-1.47,-1.4678,-1.4674,-1.4677,-1.4684,-1.4693,-1.4687,-1.4617,-1.4672,-1.4672,-1.4671,-1.4671,-1.4671,-1.49,-1.4902,-1.4883,-1.4876,-1.4864,-1.4853,-1.4853,-1.4835,-1.4828,-1.4816,-1.4799,-1.4795,-1.4778,-1.4758,-1.4748,-1.4744,-1.4731,-1.4736,-1.4737,-1.4738,-1.4742,-1.4695,-1.4742,-1.4742,-1.4741,-1.4741,-1.4741,0,-1.4952,-1.4938,-1.4932,-1.4916,-1.4911,-1.4891,-1.4877,-1.4873,-1.487,-1.4856,-1.4848,-1.484,-1.4833,-1.4811,-1.4801,-1.4802,-1.4792,-1.4801,-1.4799,-1.4797,-1.4754,-1.4752,-1.4809,-1.4809,-1.4809,-1.4809,-1.4809,-1.4809,-1.4978,-1.4981,-1.4966,-1.4963,-1.4949,-1.4944,-1.4938,-1.4928,-1.4917,-1.491,-1.4903,-1.4889,-1.4872,-1.4861,-1.4853,-1.4847,-1.4844,-1.4856,-1.4847,-1.4807,-1.48,-1.4794,-1.4791,-1.4856,-1.4856,-1.489,-1.489,-1.489]}]]